Weather History for Menominee, MI

Change the Weather History Date:

Friday, August 3, 2012

  Actual Average Record
Temperature  
Mean Temperature 68 °F -  
Max Temperature 75 °F 81 °F 97 °F (1964)
Min Temperature 62 °F 57 °F 46 °F (2000)
Cooling Degree Days 4    
Growing Degree Days 18 (Base 50)    
Moisture  
Dew Point 65 °F    
Average Humidity 87    
Maximum Humidity 100    
Minimum Humidity 78    
Precipitation  
Precipitation 0.00 in - - ()
Sea Level Pressure  
Sea Level Pressure 29.95 in    
Wind  
Wind Speed 8 mph (NE)    
Max Wind Speed 14 mph    
Max Gust Speed 17 mph    
Visibility 10 miles    
Events      
Averages and records for this station are not official NWS values.
T = Trace of Precipitation, MM = Missing Value Source: NWS Daily Summary

Daily Weather History Graph

Daily Weather History Graph

Search for Another Location

Airport:

Trip Planner

Search our weather history database for the weather conditions in past years. The results will help you decide how hot, cold, wet, or windy it might be!

Date:

Astronomy

Aug. 03, 2012 Rise Set
Actual Time 5:38 AM CDT 8:14 PM CDT
Civil Twilight 5:04 AM CDT 8:47 PM CDT
Nautical Twilight 4:22 AM CDT 9:29 PM CDT
Astronomical Twilight 3:34 AM CDT 10:17 PM CDT
Moon 8:43 PM CDT (8/3) 7:29 AM CDT (8/3)
Length of Visible Light 15h 42m
Length of Day
14h 35m
Full, 97% of the Moon is Illuminated
Aug 3
Full
Aug 9
Last Quarter
Aug 17
New
Aug 24
First Quarter
Aug 31
Full

Hourly Weather History & Observations

Time (CDT) Temp. Dew Point Humidity Pressure Visibility Wind Dir Wind Speed Gust Speed Precip Events Conditions
12:35 AM 66.2 °F 62.6 °F 88% 29.91 in 10.0 mi NE 10.4 mph 17.3 mph N/A   Clear
12:55 AM 66.2 °F 62.6 °F 88% 29.91 in 10.0 mi ENE 10.4 mph - N/A   Clear
1:15 AM 66.2 °F 62.6 °F 88% 29.91 in 10.0 mi NE 8.1 mph - N/A   Clear
1:35 AM 66.2 °F 60.8 °F 83% 29.93 in 10.0 mi NNE 8.1 mph - N/A   Clear
1:55 AM 66.2 °F 60.8 °F 83% 29.93 in 10.0 mi NE 5.8 mph - N/A   Mostly Cloudy
2:15 AM 64.4 °F 60.8 °F 88% 29.93 in 10.0 mi North 6.9 mph - N/A   Mostly Cloudy
2:35 AM 64.4 °F 60.8 °F 88% 29.93 in 10.0 mi North 4.6 mph - N/A   Partly Cloudy
2:55 AM 64.4 °F 62.6 °F 94% 29.94 in 10.0 mi North 4.6 mph - N/A   Mostly Cloudy
3:15 AM 64.4 °F 62.6 °F 94% 29.93 in 10.0 mi NNE 6.9 mph - N/A   Overcast
3:35 AM 64.4 °F 62.6 °F 94% 29.93 in 10.0 mi NNE 6.9 mph - N/A   Overcast
3:55 AM 62.6 °F 62.6 °F 100% 29.93 in 10.0 mi NNE 6.9 mph - N/A   Overcast
4:15 AM 62.6 °F 60.8 °F 94% 29.93 in 10.0 mi NE 6.9 mph - N/A   Overcast
4:35 AM 64.4 °F 60.8 °F 88% 29.93 in 10.0 mi NNE 5.8 mph - N/A   Overcast
4:55 AM 62.6 °F 60.8 °F 94% 29.94 in 10.0 mi NNE 5.8 mph - N/A   Overcast
5:35 AM 62.6 °F 60.8 °F 94% 29.93 in 10.0 mi North 4.6 mph - N/A   Overcast
5:55 AM 62.6 °F 60.8 °F 94% 29.94 in 10.0 mi North 4.6 mph - N/A   Overcast
6:15 AM 62.6 °F 60.8 °F 94% 29.95 in 10.0 mi NNE 5.8 mph - N/A   Overcast
6:35 AM 62.6 °F 60.8 °F 94% 29.96 in 10.0 mi NNE 4.6 mph - N/A   Overcast
6:55 AM 62.6 °F 60.8 °F 94% 29.97 in 10.0 mi NNW 5.8 mph - N/A   Overcast
7:15 AM 62.6 °F 60.8 °F 94% 29.97 in 10.0 mi NNW 4.6 mph - N/A   Overcast
7:35 AM 64.4 °F 60.8 °F 88% 29.97 in 10.0 mi North 3.5 mph - N/A   Overcast
7:55 AM 64.4 °F 62.6 °F 94% 29.96 in 10.0 mi North 4.6 mph - N/A   Overcast
8:15 AM 66.2 °F 62.6 °F 88% 29.96 in 10.0 mi NNE 5.8 mph - N/A   Overcast
8:35 AM 66.2 °F 62.6 °F 88% 29.96 in 10.0 mi NNE 6.9 mph - N/A   Overcast
8:55 AM 68.0 °F 64.4 °F 88% 29.96 in 10.0 mi NNE 6.9 mph - N/A   Overcast
9:15 AM 69.8 °F 64.4 °F 83% 29.96 in 10.0 mi ENE 5.8 mph - N/A   Overcast
9:35 AM 69.8 °F 66.2 °F 88% 29.95 in 10.0 mi ENE 13.8 mph - N/A   Overcast
9:55 AM 69.8 °F 66.2 °F 88% 29.96 in 10.0 mi ENE 11.5 mph - N/A   Overcast
10:15 AM 69.8 °F 66.2 °F 88% 29.96 in 10.0 mi ENE 12.7 mph - N/A   Overcast
10:35 AM 71.6 °F 66.2 °F 83% 29.97 in 10.0 mi ENE 10.4 mph - N/A   Overcast
10:55 AM 71.6 °F 66.2 °F 83% 29.98 in 10.0 mi ENE 12.7 mph - N/A   Overcast
11:15 AM 69.8 °F 66.2 °F 88% 29.98 in 10.0 mi ENE 12.7 mph - N/A   Overcast
11:35 AM 71.6 °F 66.2 °F 83% 29.98 in 10.0 mi NE 11.5 mph - N/A   Overcast
11:55 AM 71.6 °F 66.2 °F 83% 29.98 in 10.0 mi ENE 12.7 mph - N/A   Overcast
12:15 PM 71.6 °F 66.2 °F 83% 29.98 in 10.0 mi ENE 10.4 mph - N/A   Overcast
12:35 PM 71.6 °F 66.2 °F 83% 29.98 in 10.0 mi NE 10.4 mph - N/A   Overcast
12:55 PM 73.4 °F 68.0 °F 83% 29.98 in 10.0 mi ENE 11.5 mph - N/A   Overcast
1:15 PM 73.4 °F 68.0 °F 83% 29.98 in 10.0 mi ENE 12.7 mph - N/A   Overcast
1:35 PM 73.4 °F 68.0 °F 83% 29.98 in 10.0 mi East 13.8 mph - N/A   Overcast
1:55 PM 75.2 °F 68.0 °F 78% 29.98 in 10.0 mi NE 12.7 mph - N/A   Overcast
2:15 PM 75.2 °F 69.8 °F 83% 29.97 in 10.0 mi East 12.7 mph 16.1 mph N/A   Scattered Clouds
2:35 PM 75.2 °F 68.0 °F 78% 29.98 in 10.0 mi East 13.8 mph - N/A   Partly Cloudy
2:55 PM 75.2 °F 68.0 °F 78% 29.97 in 10.0 mi ENE 12.7 mph - N/A   Mostly Cloudy
3:15 PM 75.2 °F 69.8 °F 83% 29.97 in 10.0 mi ENE 11.5 mph - N/A   Mostly Cloudy
3:35 PM 75.2 °F 68.0 °F 78% 29.97 in 10.0 mi ENE 11.5 mph - N/A   Overcast
3:55 PM 75.2 °F 68.0 °F 78% 29.97 in 10.0 mi East 12.7 mph - N/A   Overcast
4:15 PM 75.2 °F 68.0 °F 78% 29.96 in 10.0 mi East 12.7 mph - N/A   Overcast
4:35 PM 75.2 °F 69.8 °F 83% 29.96 in 10.0 mi ENE 10.4 mph - N/A   Scattered Clouds
4:55 PM 75.2 °F 68.0 °F 78% 29.96 in 10.0 mi ENE 9.2 mph - N/A   Scattered Clouds
5:15 PM 75.2 °F 68.0 °F 78% 29.96 in 10.0 mi East 13.8 mph 17.3 mph N/A   Partly Cloudy
5:35 PM 75.2 °F 68.0 °F 78% 29.96 in 10.0 mi ENE 11.5 mph - N/A   Clear
5:55 PM 75.2 °F 68.0 °F 78% 29.95 in 10.0 mi ENE 11.5 mph - N/A   Clear
6:15 PM 75.2 °F 68.0 °F 78% 29.95 in 10.0 mi ENE 10.4 mph - N/A   Clear
6:35 PM 73.4 °F 68.0 °F 83% 29.95 in 10.0 mi ENE 10.4 mph - N/A   Clear
6:55 PM 73.4 °F 68.0 °F 83% 29.95 in 10.0 mi East 10.4 mph - N/A   Clear
7:15 PM 71.6 °F 68.0 °F 88% 29.95 in 10.0 mi NE 10.4 mph - N/A   Clear
7:35 PM 71.6 °F 68.0 °F 88% 29.95 in 10.0 mi ENE 8.1 mph - N/A   Clear
7:55 PM 71.6 °F 68.0 °F 88% 29.95 in 10.0 mi ENE 5.8 mph - N/A   Clear
8:35 PM 69.8 °F 68.0 °F 94% 29.94 in 10.0 mi ENE 4.6 mph - N/A   Clear
8:55 PM 69.8 °F 68.0 °F 94% 29.94 in 10.0 mi East 6.9 mph - N/A   Clear
9:15 PM 71.6 °F 68.0 °F 88% 29.94 in 10.0 mi East 5.8 mph - N/A   Clear
9:35 PM 71.6 °F 68.0 °F 88% 29.95 in 10.0 mi East 4.6 mph - N/A   Clear
9:55 PM 71.6 °F 68.0 °F 88% 29.95 in 10.0 mi ESE 5.8 mph - N/A   Clear
10:15 PM 69.8 °F 66.2 °F 88% 29.94 in 10.0 mi East 3.5 mph - N/A   Clear
10:35 PM 69.8 °F 66.2 °F 88% 29.95 in 10.0 mi East 3.5 mph - N/A   Clear
10:55 PM 69.8 °F 68.0 °F 94% 29.94 in 10.0 mi ESE 4.6 mph - N/A   Clear
11:15 PM 69.8 °F 66.2 °F 88% 29.95 in 10.0 mi ENE 3.5 mph - N/A   Clear
11:35 PM 71.6 °F 66.2 °F 83% 29.95 in 10.0 mi ESE 4.6 mph - N/A   Clear
11:55 PM 69.8 °F 66.2 °F 88% 29.95 in 10.0 mi North 3.5 mph - N/A   Partly Cloudy